Temp
89 90 89 90 90 91 90 90 92 91 90 93 92 92 91 92 92 92 92 91 90 91 90 89 89 89 91 90 89 89 89 89 91 91 90 91 92 93 94 92 92 92
89 89 89 91 90 90 90 91 91 91 90 90 92 92 92 92 92 92 91 91 91 91 90 91 90 89 89 90 89 90 89 90 89 94 90 89 91 93 93 92 93 92
90 90 90 90 93 91 93 92 91 91 93 93 93 92 94 94 93 91 91 91 91 93 91 90 90 89 90 90 89 90 90 88 89 93 90 89 92 91 92 95 95 93
89 90 92 93 93 94 94 92 92 91 93 93 93 95 94 97 93 92 91 90 90 90 92 92 91 92 91 90 89 90 90 89 91 90 89 90 91 93 92 93 94 94
90 90 92 93 93 93 93 93 94 94 93 93 94 93 92 91 91 93 92 91 90 91 91 91 91 92 90 90 90 90 91 92 91 90 89 89 90 91 94 93 91 91
90 90 90 91 92 92 93 94 93 94 94 95 94 95 94 93 93 93 93 93 94 94 94 94 93 93 93 91 90 90 92 94 94 90 89 89 91 94 96 93 90 90
92 91 91 92 93 93 92 93 93 93 95 96 95 94 94 94 93 92 92 93 94 93 95 92 91 91 92 91 90 89 90 90 90 90 89 90 90 90 93 92 90 89
93 94 92 92 93 94 93 94 94 93 94 94 95 94 94 95 93 95 94 93 94 93 92 93 91 89 93 93 91 90 90 95 93 89 89 89 89 89 90 92 91 89
93 94 94 93 94 95 96 97 96 95 95 94 95 96 95 95 95 96 93 92 93 92 91 92 90 92 93 92 91 90 90 92 94 92 90 90 90 89 91 91 91 90
91 93 95 95 95 95 95 97 98 97 96 95 96 97 97 95 95 95 94 91 91 91 91 91 91 92 93 93 91 91 91 90 91 91 92 92 91 92 93 92 91 90
90 92 93 94 94 96 97 97 97 98 97 96 96 96 97 96 94 94 92 91 93 92 91 91 92 92 92 93 94 94 93 93 92 91 91 91 91 91 91 91 91 92
88 90 91 93 94 96 96 97 98 98 97 97 97 95 95 97 95 94 94 92 92 92 93 92 91 92 91 92 94 95 94 94 93 92 92 92 92 93 93 93 93 92
88 88 90 92 92 93 96 96 97 98 97 97 96 95 95 96 97 94 94 94 92 93 93 92 92 93 91 91 92 92 93 93 94 93 93 93 94 94 95 95 95 95
90 89 89 89 90 89 91 94 96 96 96 96 95 94 95 96 97 96 96 95 94 94 93 93 92 92 91 91 91 93 93 93 93 93 94 94 95 95 96 97 97 97
88 89 89 87 87 87 87 89 92 93 93 94 93 94 96 96 97 97 96 95 95 94 93 95 96 95 95 93 92 91 92 93 93 93 93 93 93 95 95 95 96 97
85 86 86 86 85 85 85 87 90 91 93 93 92 93 92 92 93 94 96 95 94 93 94 96 96 97 91 84 85 92 93 95 95 93 92 92 92 92 94 95 97 98
81 83 84 84 84 84 84 84 86 89 89 88 89 90 90 90 91 92 94 95 95 95 95 97 97 98 82 75 75 76 88 92 92 91 92 91 92 91 90 93 95 96
77 78 80 82 82 83 83 83 84 84 85 86 87 88 87 89 90 90 91 93 95 96 96 97 98 86 71 72 72 71 77 89 93 93 94 93 93 93 93 94 95 96
77 76 76 77 77 79 81 81 81 81 82 84 86 87 88 86 86 89 90 91 93 92 94 96 99 75 71 70 70 69 68 78 92 93 93 94 94 93 94 93 93 94
76 74 74 74 75 75 75 77 78 79 81 83 85 85 85 86 88 87 89 89 90 91 90 93 97 76 69 69 69 66 67 73 90 92 92 93 92 93 95 94 92 92
75 75 74 75 74 74 74 73 75 76 78 81 83 84 83 83 86 86 87 88 90 91 92 93 90 64 65 65 65 65 65 73 88 92 92 92 93 93 92 93 92 92
71 71 72 72 71 71 72 72 72 74 75 77 78 80 82 82 83 87 88 88 88 90 91 91 81 61 63 64 63 66 65 86 89 88 89 91 91 92 92 91 92 91
70 70 69 70 70 71 71 70 70 71 70 71 74 77 78 78 80 83 84 85 85 85 86 86 86 65 59 59 61 61 71 87 88 88 88 89 90 91 91 91 91 90
71 70 68 67 68 68 68 69 69 69 68 70 70 72 74 77 78 79 80 80 79 78 83 85 80 66 58 58 59 61 72 85 87 87 86 87 88 89 90 90 86 80
72 72 70 69 68 68 69 69 69 69 71 71 70 70 71 72 73 74 74 72 72 72 73 76 76 69 57 57 56 58 68 82 84 85 84 85 89 89 89 89 86 80
73 71 70 71 70 69 69 69 69 69 69 70 70 70 70 71 72 71 70 70 71 74 75 75 73 72 63 55 56 58 61 75 82 82 81 80 76 75 75 75 76 78
MSLP
1020.51 1020.59 1020.87 1021.03 1021.07 1021.03 1021.15 1021.39 1021.31 1021.47 1021.59 1021.39 1021.63 1021.59 1021.67 1021.51 1021.47 1021.63 1021.67 1021.79 1021.95 1022.07 1022.15 1022.27 1022.31 1022.43 1022.35 1022.43 1022.47 1022.51 1022.51 1022.55 1022.31 1022.27 1022.43 1022.39 1022.39 1022.31 1022.39 1022.47 1022.47 1022.43
1020.47 1020.55 1020.63 1020.71 1020.87 1020.95 1021.07 1021.03 1021.15 1021.31 1021.43 1021.43 1021.31 1021.27 1021.27 1021.31 1021.43 1021.55 1021.71 1021.83 1021.91 1022.03 1022.07 1022.11 1022.23 1022.35 1022.39 1022.35 1022.47 1022.51 1022.59 1022.51 1022.63 1022.03 1022.51 1022.59 1022.43 1022.27 1022.31 1022.31 1022.31 1022.19
1020.27 1020.43 1020.67 1020.87 1020.75 1020.91 1020.79 1020.75 1020.91 1021.03 1021.07 1021.03 1021.03 1021.15 1021.11 1021.07 1021.27 1021.39 1021.51 1021.67 1021.87 1021.75 1021.95 1022.07 1022.15 1022.23 1022.27 1022.31 1022.43 1022.47 1022.47 1022.63 1022.67 1022.15 1022.39 1022.63 1022.35 1022.43 1022.23 1021.95 1021.91 1022.15
1020.23 1020.19 1020.27 1020.35 1020.31 1020.47 1020.51 1020.67 1020.83 1020.95 1020.79 1020.99 1021.07 1020.79 1020.91 1020.79 1021.11 1021.35 1021.47 1021.67 1021.79 1021.87 1021.75 1021.79 1021.91 1021.87 1022.03 1022.15 1022.35 1022.39 1022.31 1022.43 1022.19 1022.23 1022.47 1022.35 1022.27 1022.15 1022.19 1021.99 1021.95 1021.95
1019.99 1020.11 1020.07 1020.07 1020.07 1020.11 1020.23 1020.55 1020.67 1020.63 1020.79 1020.75 1020.71 1020.75 1020.99 1021.15 1021.23 1021.23 1021.39 1021.55 1021.67 1021.75 1021.75 1021.87 1021.83 1021.87 1021.91 1022.07 1022.15 1022.35 1022.19 1022.19 1022.03 1022.27 1022.51 1022.59 1022.31 1022.27 1022.03 1022.03 1022.35 1022.47
1019.67 1019.83 1019.95 1020.07 1020.07 1020.19 1020.31 1020.43 1020.51 1020.47 1020.55 1020.59 1020.71 1020.51 1020.71 1020.95 1021.07 1021.07 1021.15 1021.35 1021.31 1021.43 1021.39 1021.39 1021.59 1021.59 1021.67 1021.87 1021.99 1022.07 1021.95 1021.87 1021.71 1022.15 1022.43 1022.55 1022.27 1021.87 1021.75 1021.95 1022.31 1022.51
1019.51 1019.71 1019.87 1019.83 1019.99 1019.99 1020.23 1020.23 1020.19 1020.27 1020.23 1020.19 1020.23 1020.55 1020.47 1020.75 1020.95 1021.03 1021.03 1021.11 1021.03 1021.07 1021.15 1021.31 1021.59 1021.63 1021.55 1021.67 1021.95 1022.15 1022.07 1022.11 1021.99 1022.15 1022.43 1022.31 1022.23 1022.27 1021.91 1021.99 1022.27 1022.47
1019.19 1019.23 1019.47 1019.63 1019.83 1019.83 1020.07 1020.03 1020.07 1020.15 1020.07 1020.11 1020.35 1020.35 1020.39 1020.55 1020.71 1020.63 1020.75 1020.91 1020.99 1021.11 1021.19 1021.23 1021.47 1021.71 1021.51 1021.51 1021.83 1022.03 1022.07 1021.67 1021.87 1022.11 1022.31 1022.39 1022.27 1022.43 1022.27 1022.03 1022.07 1022.39
1018.87 1019.03 1019.19 1019.47 1019.63 1019.59 1019.63 1019.59 1019.63 1019.75 1019.75 1020.11 1020.19 1020.03 1020.07 1020.23 1020.35 1020.39 1020.63 1020.83 1020.95 1021.03 1021.23 1021.31 1021.43 1021.43 1021.35 1021.47 1021.63 1021.87 1021.99 1021.75 1021.51 1021.71 1022.03 1022.15 1022.19 1022.27 1022.15 1021.91 1022.11 1022.23
1018.87 1018.87 1018.95 1019.11 1019.35 1019.27 1019.35 1019.23 1019.15 1019.31 1019.43 1019.75 1019.83 1019.75 1019.87 1019.99 1020.03 1020.15 1020.43 1020.83 1021.03 1021.11 1021.19 1021.19 1021.27 1021.27 1021.23 1021.19 1021.47 1021.59 1021.67 1021.79 1021.71 1021.71 1021.67 1021.71 1021.83 1021.83 1021.75 1021.75 1021.95 1022.11
1018.75 1018.79 1018.91 1018.99 1019.07 1018.95 1018.99 1018.95 1018.95 1018.99 1019.11 1019.47 1019.51 1019.67 1019.59 1019.67 1019.99 1020.03 1020.35 1020.71 1020.91 1020.99 1021.07 1021.15 1021.07 1021.03 1021.15 1021.07 1020.95 1020.91 1021.19 1021.31 1021.35 1021.47 1021.51 1021.59 1021.55 1021.55 1021.59 1021.67 1021.75 1021.79
1018.87 1018.83 1018.87 1018.79 1018.79 1018.79 1018.79 1018.67 1018.71 1018.83 1018.91 1019.11 1019.31 1019.55 1019.55 1019.51 1019.79 1019.95 1020.11 1020.47 1020.59 1020.59 1020.63 1020.79 1020.79 1020.83 1020.95 1020.95 1020.79 1020.71 1020.83 1020.95 1021.03 1021.15 1021.23 1021.27 1021.27 1021.23 1021.23 1021.23 1021.35 1021.39
1018.75 1018.83 1018.79 1018.71 1018.75 1018.71 1018.55 1018.55 1018.67 1018.67 1018.75 1018.99 1019.07 1019.27 1019.47 1019.59 1019.51 1019.75 1019.83 1019.99 1020.23 1020.27 1020.35 1020.43 1020.55 1020.59 1020.71 1020.83 1020.79 1020.75 1020.79 1020.87 1020.87 1020.87 1020.91 1020.95 1020.87 1020.87 1020.79 1020.71 1020.75 1020.83
1018.23 1018.43 1018.55 1018.67 1018.63 1018.75 1018.79 1018.67 1018.63 1018.67 1018.71 1018.71 1018.87 1019.19 1019.35 1019.35 1019.43 1019.51 1019.55 1019.71 1019.83 1019.95 1020.03 1020.03 1020.27 1020.43 1020.47 1020.59 1020.59 1020.55 1020.59 1020.67 1020.75 1020.83 1020.75 1020.67 1020.55 1020.51 1020.43 1020.39 1020.31 1020.31
1017.99 1018.07 1018.31 1018.59 1018.79 1018.91 1019.03 1019.03 1018.91 1018.83 1018.83 1018.87 1018.99 1019.11 1019.03 1019.11 1019.07 1019.19 1019.35 1019.51 1019.51 1019.63 1019.75 1019.75 1019.83 1019.95 1019.91 1020.07 1020.35 1020.51 1020.47 1020.51 1020.51 1020.55 1020.63 1020.67 1020.67 1020.51 1020.31 1020.27 1020.19 1020.07
1018.19 1018.31 1018.47 1018.59 1018.83 1019.03 1019.11 1019.07 1018.99 1018.99 1018.91 1019.03 1019.15 1019.11 1019.15 1019.11 1019.15 1019.15 1019.15 1019.31 1019.55 1019.59 1019.59 1019.59 1019.59 1019.43 1019.51 1019.87 1020.03 1020.11 1020.15 1020.07 1020.07 1020.19 1020.31 1020.43 1020.59 1020.67 1020.47 1020.23 1020.03 1019.87
1018.43 1018.55 1018.63 1018.87 1018.87 1018.95 1019.03 1019.11 1019.07 1018.95 1019.11 1019.27 1019.31 1019.27 1019.27 1019.23 1019.31 1019.39 1019.35 1019.19 1019.27 1019.35 1019.39 1019.27 1019.11 1018.95 1019.39 1019.79 1020.11 1020.35 1020.31 1020.19 1020.31 1020.27 1020.19 1020.27 1020.35 1020.47 1020.63 1020.35 1019.95 1019.71
1018.75 1018.83 1018.91 1018.95 1018.99 1019.03 1019.03 1019.03 1019.03 1019.15 1019.27 1019.39 1019.47 1019.47 1019.47 1019.31 1019.39 1019.43 1019.35 1019.19 1019.03 1018.99 1019.03 1018.87 1018.75 1018.75 1019.31 1019.63 1019.95 1020.19 1020.39 1020.27 1019.99 1019.91 1019.79 1019.79 1019.79 1019.91 1019.87 1019.79 1019.75 1019.51
1018.79 1019.11 1019.27 1019.35 1019.47 1019.35 1019.11 1019.07 1019.23 1019.35 1019.43 1019.47 1019.51 1019.31 1019.23 1019.43 1019.39 1019.27 1019.23 1019.11 1019.03 1019.07 1018.99 1018.67 1018.51 1018.79 1019.11 1019.47 1019.75 1020.07 1020.31 1020.39 1019.95 1019.75 1019.75 1019.63 1019.47 1019.47 1019.51 1019.59 1019.59 1019.59
1018.83 1019.19 1019.51 1019.59 1019.63 1019.71 1019.79 1019.63 1019.47 1019.43 1019.31 1019.27 1019.27 1019.23 1019.35 1019.31 1019.11 1019.11 1018.99 1018.99 1018.91 1018.91 1018.91 1018.79 1018.47 1018.95 1019.11 1019.39 1019.63 1019.95 1020.19 1020.31 1019.87 1019.67 1019.51 1019.39 1019.35 1019.27 1019.15 1019.11 1019.27 1019.47
1018.95 1019.15 1019.31 1019.35 1019.43 1019.59 1019.79 1019.99 1019.87 1019.63 1019.47 1019.31 1019.39 1019.39 1019.43 1019.47 1019.15 1019.03 1018.83 1018.79 1018.71 1018.67 1018.75 1018.75 1019.03 1019.51 1019.47 1019.59 1019.67 1019.83 1019.99 1020.19 1019.67 1019.47 1019.23 1019.11 1018.99 1018.87 1018.99 1018.99 1019.03 1019.15
1019.51 1019.55 1019.51 1019.59 1019.83 1019.99 1019.95 1019.95 1019.95 1019.83 1019.63 1019.39 1019.43 1019.47 1019.27 1019.19 1019.11 1018.75 1018.71 1018.79 1018.71 1018.59 1018.71 1018.67 1019.51 1019.91 1019.91 1019.91 1019.95 1019.91 1019.99 1019.63 1019.31 1019.47 1019.39 1019.15 1018.95 1018.79 1018.75 1018.79 1018.83 1018.99
1019.83 1019.91 1020.03 1020.07 1020.11 1020.15 1020.19 1020.27 1020.27 1020.27 1020.19 1019.83 1019.71 1019.47 1019.51 1019.55 1019.47 1019.19 1018.91 1018.95 1018.95 1019.03 1019.11 1019.07 1019.19 1019.95 1019.99 1019.95 1019.91 1019.87 1019.71 1019.27 1019.07 1019.07 1019.15 1019.11 1018.99 1018.79 1018.71 1018.79 1018.79 1018.87
1020.15 1020.19 1020.39 1020.43 1020.43 1020.55 1020.51 1020.43 1020.35 1020.35 1020.43 1020.19 1020.19 1020.03 1019.87 1019.71 1019.63 1019.51 1019.51 1019.55 1019.67 1019.75 1019.47 1019.35 1019.83 1020.35 1020.31 1020.15 1019.95 1019.75 1019.51 1019.11 1018.87 1018.99 1019.15 1019.11 1018.95 1018.79 1018.75 1018.79 1019.11 1019.59
1020.07 1020.15 1020.31 1020.51 1020.67 1020.75 1020.71 1020.59 1020.51 1020.47 1020.31 1020.19 1020.23 1020.23 1020.23 1020.19 1020.11 1020.15 1020.15 1020.27 1020.31 1020.63 1020.75 1020.47 1020.43 1020.59 1020.71 1020.55 1020.39 1020.19 1019.83 1019.19 1018.91 1018.95 1019.23 1019.27 1019.03 1018.87 1018.71 1018.83 1019.23 1019.99
1020.07 1020.31 1020.39 1020.43 1020.59 1020.67 1020.67 1020.51 1020.39 1020.43 1020.47 1020.43 1020.63 1020.59 1020.51 1020.51 1020.47 1020.39 1020.47 1020.47 1020.27 1020.39 1020.67 1020.95 1021.03 1020.87 1021.03 1020.83 1020.67 1020.39 1020.15 1019.71 1019.15 1019.35 1019.67 1019.91 1020.47 1020.83 1020.75 1020.75 1020.59 1020.59
Wind_Speed
8 7 7 7 6 5 4 5 5 5 4 4 4 4 4 3 3 3 3 3 3 3 3 3 3 3 3 3 3 3 2 2 3 2 2 2 3 3 3 2 3 3
9 8 7 6 6 5 5 5 5 4 4 4 3 2 3 3 4 5 4 4 4 5 4 4 4 4 4 3 4 4 2 3 4 2 2 3 3 3 3 4 3 1
10 10 9 9 8 8 8 6 5 5 5 5 4 4 3 5 5 4 4 5 5 5 5 4 4 4 5 4 3 4 4 3 4 2 2 2 3 2 3 3 4 3
11 10 9 10 9 8 8 7 6 5 5 5 5 5 5 3 4 5 5 5 5 5 4 4 4 4 5 5 4 4 3 4 3 2 3 3 3 3 2 3 2 3
11 10 9 8 8 8 7 7 8 7 7 5 5 5 5 4 4 5 5 6 6 6 6 6 5 5 5 5 5 5 4 4 4 4 3 3 3 3 4 2 2 3
9 9 9 9 8 8 8 8 8 7 7 7 7 6 6 6 6 6 6 6 7 7 6 6 6 6 6 5 5 5 4 4 2 3 4 4 4 2 3 1 2 3
10 10 11 10 10 9 9 9 8 8 7 7 6 7 6 6 6 6 6 6 6 6 6 5 4 4 4 4 4 4 4 4 3 3 4 4 4 4 4 3 3 3
11 10 10 10 11 10 10 10 9 8 8 7 7 7 7 7 7 7 7 7 7 6 5 4 5 5 5 5 5 5 5 5 5 5 5 5 4 4 4 4 4 4
10 10 10 10 11 11 12 11 10 10 8 9 8 7 8 7 7 7 7 7 6 5 6 6 6 6 5 5 4 5 5 5 4 4 5 5 5 5 5 5 5 5
10 10 10 10 11 11 12 11 10 10 9 9 9 8 8 8 7 7 7 6 7 6 6 7 6 7 7 6 6 6 6 5 5 5 5 5 5 5 5 5 5 5
10 10 11 11 11 10 12 11 11 10 9 9 9 9 8 8 8 7 7 7 7 8 8 7 7 7 7 7 6 6 6 6 6 5 6 6 6 5 5 6 6 7
9 10 10 11 11 11 11 11 10 10 9 9 9 9 8 8 8 8 8 8 7 7 7 7 7 7 7 7 7 7 7 7 6 6 6 7 7 7 7 7 7 7
9 10 10 10 10 9 9 9 9 9 10 9 9 9 9 9 9 8 8 8 8 8 8 7 7 8 7 7 8 7 6 6 7 7 7 7 7 8 8 8 8 8
9 9 9 9 8 7 8 9 9 9 9 9 8 9 10 10 9 9 9 8 8 7 7 7 7 7 8 8 8 8 7 7 7 7 8 7 8 8 8 8 8 8
7 7 7 7 7 7 8 8 8 8 8 8 8 9 8 9 9 9 9 8 8 7 7 7 8 8 8 8 8 8 8 8 8 8 8 8 8 9 8 8 8 9
6 6 6 6 6 6 6 8 9 9 9 9 9 9 9 8 8 9 9 9 8 8 9 8 8 7 5 3 2 5 6 6 6 6 7 7 7 8 9 9 10 10
5 6 6 6 7 7 7 7 8 8 8 7 8 8 8 8 8 9 9 9 9 9 10 9 8 8 10 11 9 8 7 8 7 8 8 8 9 9 9 10 10 10
5 6 6 7 7 7 7 7 6 7 8 8 8 9 8 8 9 9 9 9 9 10 10 10 9 7 14 11 10 9 7 7 8 8 8 8 9 9 8 9 10 10
7 6 5 6 4 5 6 7 7 7 8 9 10 10 9 9 9 9 10 10 10 10 10 9 10 11 12 11 9 8 8 7 7 8 9 9 9 9 9 8 8 8
7 6 5 4 5 5 4 5 8 9 9 8 8 9 9 9 9 10 10 10 10 9 9 8 10 7 9 9 8 7 6 6 7 9 10 10 10 10 9 9 8 8
4 6 7 5 3 5 7 6 7 6 7 8 8 9 8 9 10 10 9 9 10 9 9 10 2 9 9 8 8 7 7 6 7 8 9 9 9 10 10 9 9 8
7 6 5 5 4 3 2 1 0 2 5 7 8 7 8 7 8 10 10 8 8 8 7 9 6 10 9 6 3 4 6 5 7 7 9 10 10 10 9 8 7 7
7 7 7 7 6 5 5 5 4 4 6 6 3 6 6 6 6 7 6 6 7 6 6 7 3 8 6 4 4 2 5 6 7 8 8 9 9 8 8 6 6 3
6 7 7 6 6 6 6 5 5 4 3 4 4 3 2 2 1 1 2 3 5 5 5 6 5 8 8 6 2 1 4 6 7 7 7 8 8 7 6 5 3 9
6 6 6 6 5 5 4 5 4 4 3 2 2 3 4 4 3 3 6 8 9 4 6 5 5 9 11 9 9 7 5 5 7 7 7 6 6 7 6 5 3 8
6 6 6 5 5 4 3 4 3 2 2 2 3 3 2 1 3 5 7 6 4 4 5 5 5 7 10 11 12 11 9 5 5 6 5 5 8 10 11 11 9 2
Wind_Direction
201 201 204 204 213 218 215 206 210 203 215 223 210 203 205 196 203 212 202 194 193 210 196 211 208 213 211 203 209 229 257 259 286 187 230 246 232 233 218 214 237 243
205 208 211 215 209 212 216 226 211 227 209 225 243 211 201 195 191 205 207 210 199 204 212 204 206 214 224 213 198 231 228 233 246 211 232 229 245 232 229 219 249 269
208 205 208 214 213 206 217 211 223 219 215 217 208 223 206 190 198 191 206 215 212 212 194 213 213 213 220 216 213 229 220 217 251 226 226 251 264 256 270 248 215 195
211 214 211 214 220 213 213 217 209 222 230 204 216 202 211 187 190 190 196 207 210 214 215 212 222 216 207 210 213 232 223 236 239 248 237 232 240 256 254 257 272 260
212 212 218 219 220 221 219 217 221 208 218 216 208 200 198 210 206 203 197 196 207 207 207 216 210 219 208 210 210 230 227 231 203 217 238 236 232 227 241 249 286 281
210 215 216 223 222 220 219 216 217 224 216 207 215 204 201 198 215 215 200 202 198 211 211 205 205 209 209 201 217 231 244 251 176 197 233 236 253 239 254 223 252 265
208 207 216 217 222 219 223 221 219 224 217 219 199 214 210 204 208 211 209 208 220 208 215 198 209 216 208 209 214 223 236 254 272 242 243 247 234 250 261 244 245 261
215 211 212 219 222 219 219 219 220 216 219 216 215 205 214 215 208 210 203 208 213 208 217 211 199 208 227 215 217 222 236 227 216 223 235 248 263 253 247 262 242 238
216 217 213 218 222 222 218 217 211 215 212 214 219 214 203 219 207 215 202 204 220 210 205 215 210 219 224 231 232 231 239 256 252 225 231 240 235 235 243 243 242 244
215 224 222 218 220 221 223 219 218 210 206 216 217 219 211 200 217 215 199 203 218 216 212 221 212 217 225 221 220 232 241 237 243 248 250 246 246 251 247 237 247 251
216 217 222 222 224 225 222 220 220 220 207 214 217 217 220 201 200 211 209 204 218 216 218 221 221 220 222 230 231 228 229 237 239 238 238 243 252 256 261 260 256 256
214 219 225 226 226 226 228 225 220 220 218 206 220 217 218 214 201 204 206 208 220 226 221 218 221 226 224 233 236 228 222 229 232 234 238 240 243 243 242 243 246 244
206 218 224 226 225 233 234 228 226 223 220 216 211 220 218 216 209 206 208 210 209 219 223 216 218 223 225 227 235 244 246 244 247 243 241 242 241 242 247 244 243 242
202 209 223 229 234 229 236 239 233 229 226 224 221 217 222 221 221 211 206 211 216 219 223 223 218 223 223 228 235 239 239 236 239 247 252 253 252 249 252 254 249 246
202 206 207 210 218 221 223 233 235 234 233 233 225 229 224 225 225 226 223 218 216 221 227 230 228 223 223 219 218 225 241 248 248 248 249 249 254 260 257 255 256 258
201 206 196 195 198 203 214 223 227 230 231 224 228 228 232 235 237 234 231 226 223 220 224 227 231 234 209 104 323 264 250 256 257 259 267 271 271 267 263 258 258 259
209 210 207 206 200 204 213 224 232 227 225 230 231 229 234 228 230 234 235 236 235 231 226 226 228 230 151 161 188 228 255 255 256 255 251 253 254 251 255 262 264 261
182 197 208 222 224 211 206 211 221 230 227 219 225 224 218 228 225 226 233 238 237 237 235 234 237 150 146 165 189 204 225 259 262 259 255 251 246 250 255 256 257 257
187 193 196 199 190 224 220 203 207 217 227 226 228 227 220 213 223 225 223 227 235 239 240 235 245 138 161 161 180 190 196 235 260 260 262 261 262 260 258 261 264 266
179 176 180 201 213 211 240 229 206 212 219 230 238 232 225 222 218 219 221 223 228 231 234 238 246 124 147 154 165 185 177 218 254 260 261 261 264 266 265 260 254 255
183 198 197 192 185 208 210 220 234 232 225 225 232 239 234 233 232 224 224 223 224 226 227 233 83 80 101 127 134 162 161 213 253 261 261 260 257 254 254 257 262 259
75 83 90 97 99 79 114 188 229 235 213 216 216 228 238 240 243 241 233 229 235 240 238 234 88 49 51 53 82 135 182 222 236 239 251 257 257 256 259 261 256 256
59 66 65 69 72 86 83 61 50 27 10 352 295 219 213 223 235 238 251 254 248 239 241 252 144 46 56 93 106 128 229 237 245 247 250 253 257 259 259 255 255 269
71 76 72 60 50 49 49 51 46 39 25 357 4 356 300 209 93 45 55 24 1 333 286 231 63 33 19 24 15 13 270 246 234 239 244 245 245 244 244 250 89 68
66 73 80 76 64 52 37 58 52 36 39 23 8 25 33 354 15 27 54 49 40 10 326 37 59 48 29 26 12 360 325 249 242 242 248 252 255 245 227 234 119 70
65 58 65 66 70 83 76 69 72 51 10 17 13 353 19 23 54 89 99 104 129 93 91 39 44 56 40 33 31 20 0 312 241 244 265 334 336 340 347 347 319 115